User: anonymous   Login
Location: Unspecified
(0.0000°N, 0.0000°E)
Time: 13:44:58
(UTC+00:00)
Language:

MAROC-TUBSAT - Orbit

View from above orbital plane
View from above orbital plane
View from above satellite
View from above satellite

Ground track
Ground track

The orbit data is extracted from the following two-line orbital elements,

1 27004U 01056D   17114.91905010 -.00000039 +00000-0 +40133-5 0  9993
2 27004 099.3472 256.2617 0020699 114.1632 357.0859 13.70122036768757
Epoch (UTC): 24 April 2017 22:03:25
Eccentricity: 0.0020699
inclination: 99.3472°
perigee height: 984 km
apogee height: 1014 km
right ascension of ascending node: 256.2617°
argument of perigee: 114.1632°
revolutions per day: 13.70122036
mean anomaly at epoch: 357.0859°
orbit number at epoch: 76875

The dashed part of the orbit path shows where the satellite is in the earth's shadow,  

DLR